Location: Cadeilhan
(42.8161°N, 0.3161°E)
Time: 18:03:46
(UTC+00:00)

ADEOS Rocket - Pass Details

Date: 18 February 2020
Orbit: 859 x 1306 km, 98.7° (Epoch: 27 March)

Event Time Altitude Azimuth Distance (km) Brightness Sun altitude
Rises 05:30:29 0° 153° (SSE) 3,612 6.4 -15.7°
Reaches altitude 10° 05:32:50 10° 150° (SSE) 2,722 5.8 -15.3°
Maximum altitude 05:38:53 63° 71° (ENE) 1,166 3.7 -14.2°
Drops below altitude 10° 05:45:40 10° 352° (N) 3,045 5.5 -12.9°
Sets 05:48:25 0° 350° (N) 4,071 6.1 -12.4°
